User: anonymous   Login
Location: Unspecified
(0.0000°N, 0.0000°E)
Time: 20:06:06
(UTC+00:00)
Language:

STARLINK-30235 - Orbit

View from above orbital plane
View from above orbital plane
View from above satellite
View from above satellite

Ground track
Ground track

The orbit is defined by the following mean orbital elements,

1 57294U          26145.36332137 +.00000000 +00000-0 +71468-5 0 00007
2 57294  43.0012 150.1653 0001765 279.9743  80.0909 15.27584105    04
Epoch (UTC): 25 May 2026 08:43:10
Eccentricity: 0.0001765
inclination: 43.0012°
perigee height: 482 km
apogee height: 484 km
right ascension of ascending node: 150.1653°
argument of perigee: 279.9743°
revolutions per day: 15.27584105
mean anomaly at epoch: 80.0909°

The dashed part of the orbit path shows where the satellite is in the earth's shadow,  

DLR